FW1492 Weather Reports


Display with metric or nautical units.
time (UTC)temp
F
wind
direction
speed
MPH
gust
MPH
rain 1hr
in
rain 24hr
in
rain mn
in
humidity
%
barometer
mb
20260901044509 66 196 0.0 1.0 0.00 0.28 0.00 100 1018.4
20260901043008 66 197 0.0 0.0 0.05 0.28 0.00 99 1018.5
20260901041505 66 198 0.0 1.0 0.12 0.28 0.00 99 1018.5
20260901040005 66 198 0.0 0.0 0.13 0.28 0.00 99 1018.6
20260901034503 66 198 0.0 0.0 0.13 0.28 0.28 99 1018.8
20260901033101 66 198 0.0 1.0 0.11 0.24 0.23 99 1018.7
20260901031559 66 213 0.0 0.0 0.05 0.17 0.16 99 1018.7
20260901030059 66 213 0.0 1.0 0.04 0.16 0.15 99 1018.7
20260901024557 66 221 0.0 0.0 0.04 0.16 0.15 99 1019.0
20260901023056 66 226 0.0 0.0 0.01 0.13 0.12 99 1019.2
20260901021557 66 243 0.0 0.0 0.00 0.12 0.11 99 1019.3
20260901020057 66 243 0.0 0.0 0.00 0.12 0.11 99 1019.3
20260901014555 66 243 0.0 0.0 0.00 0.12 0.11 99 1019.3
20260901013110 66 243 0.0 0.0 0.00 0.12 0.11 99 1019.4
20260901011554 66 243 0.0 1.0 0.00 0.12 0.11 99 1019.3
20260901010057 66 309 0.0 0.0 0.00 0.12 0.11 98 1019.4
20260901004553 67 309 0.0 0.0 0.03 0.12 0.11 98 1019.2
20260901003052 67 311 0.0 0.0 0.05 0.12 0.11 98 1019.1
20260901001553 67 311 0.0 0.0 0.05 0.12 0.11 98 1019.0
20260901000052 67 311 0.0 0.0 0.05 0.12 0.11 98 1018.9
20260831234553 67 311 0.0 0.0 0.02 0.09 0.08 97 1019.1
20260831233053 68 311 0.0 0.0 0.00 0.07 0.06 97 1019.2
20260831231549 68 311 0.0 0.0 0.00 0.07 0.06 97 1019.4
20260831230047 68 311 0.0 0.0 0.00 0.07 0.06 96 1019.6
20260831224546 68 311 0.0 0.0 0.00 0.07 0.06 96 1019.4
20260831223053 69 311 0.0 0.0 0.00 0.07 0.06 96 1019.4
20260831221545 69 311 0.0 0.0 0.00 0.07 0.06 96 1019.4
20260831220046 69 311 0.0 0.0 0.00 0.07 0.06 96 1019.7
20260831214557 69 311 0.0 0.0 0.00 0.07 0.06 96 1019.4
20260831213043 68 311 0.0 0.0 0.00 0.07 0.06 95 1019.6
20260831211544 69 311 0.0 0.0 0.00 0.07 0.06 95 1019.7
20260831210040 69 311 0.0 0.0 0.00 0.07 0.06 96 1019.9
20260831204641 68 312 0.0 1.0 0.00 0.07 0.06 96 1019.9
20260831203039 68 312 0.0 0.0 0.00 0.07 0.06 96 1020.0
20260831201537 68 312 0.0 0.0 0.01 0.07 0.06 96 1020.1
20260831200036 68 45 0.0 0.0 0.03 0.07 0.06 97 1020.0
20260831194536 67 45 0.0 0.0 0.06 0.07 0.06 95 1020.1
20260831193102 67 45 0.0 2.0 0.06 0.07 0.06 94 1020.7
20260831191534 68 127 0.0 0.0 0.05 0.06 0.05 93 1020.9
20260831190038 69 127 0.0 0.0 0.03 0.04 0.03 91 1021.1
20260831184533 70 127 0.0 0.0 0.00 0.01 0.00 88 1021.0
20260831183032 71 127 0.0 0.0 0.00 0.01 0.00 85 1020.9
20260831181545 72 127 0.0 0.0 0.00 0.01 0.00 84 1020.8
20260831180036 72 127 0.0 0.0 0.00 0.01 0.00 83 1020.9
20260831174529 73 127 0.0 0.0 0.00 0.01 0.00 82 1021.0
20260831173028 73 127 0.0 0.0 0.00 0.01 0.00 80 1021.2
20260831171527 74 127 0.0 0.0 0.00 0.01 0.00 78 1021.1
20260831170030 73 356 0.0 0.0 0.00 0.01 0.00 78 1021.0
20260831164522 73 356 0.0 0.0 0.00 0.01 0.00 81 1021.1
20260831163023 72 356 0.0 0.0 0.00 0.01 0.00 81 1021.1
20260831161535 72 95 0.0 2.0 0.00 0.01 0.00 81 1021.0
20260831160020 72 142 0.0 2.0 0.00 0.01 0.00 82 1021.0
20260831154518 72 134 0.0 1.0 0.00 0.01 0.00 83 1021.3
20260831153016 71 135 0.0 1.0 0.00 0.01 0.00 81 1021.5
20260831151514 71 307 0.0 2.0 0.00 0.01 0.00 83 1021.6
20260831150013 71 316 0.0 1.0 0.00 0.01 0.00 82 1021.6
20260831144514 71 310 0.0 2.0 0.00 0.01 0.00 83 1021.7
20260831143012 70 264 0.0 0.0 0.00 0.01 0.00 85 1021.6
20260831141508 69 144 0.0 1.0 0.00 0.01 0.00 85 1021.6
20260831140006 69 144 0.0 1.0 0.00 0.01 0.00 87 1021.6
20260831134503 68 143 0.0 0.0 0.00 0.01 0.00 89 1021.4
20260831133000 67 143 0.0 1.0 0.00 0.01 0.00 90 1021.4
20260831131603 67 301 0.0 0.0 0.00 0.01 0.00 92 1021.2
20260831130105 65 301 0.0 1.0 0.00 0.01 0.00 93 1021.2
20260831124556 65 298 0.0 0.0 0.00 0.01 0.00 95 1021.4
20260831123055 64 298 0.0 0.0 0.00 0.01 0.00 95 1021.5
20260831121555 64 298 0.0 0.0 0.00 0.01 0.00 95 1021.3
20260831120055 63 298 0.0 0.0 0.00 0.01 0.00 96 1021.4
20260831114553 63 298 0.0 0.0 0.00 0.01 0.00 95 1021.4
20260831113055 63 298 0.0 0.0 0.00 0.01 0.00 95 1021.1
20260831111553 63 298 0.0 0.0 0.00 0.01 0.00 95 1021.0
20260831110048 63 298 0.0 0.0 0.00 0.01 0.00 94 1020.5
20260831104550 63 317 0.0 1.0 0.00 0.01 0.00 94 1020.4
20260831103050 63 333 0.0 1.0 0.00 0.01 0.00 95 1020.6
20260831101546 62 345 0.0 2.0 0.00 0.01 0.00 95 1020.4
20260831100103 63 330 0.0 0.0 0.00 0.01 0.00 95 1020.5
20260831094548 63 330 0.0 0.0 0.00 0.01 0.00 95 1020.3
20260831093052 63 330 0.0 1.0 0.00 0.01 0.00 95 1020.3
20260831091541 63 330 0.0 0.0 0.00 0.01 0.00 95 1020.3
20260831090044 63 330 0.0 0.0 0.00 0.01 0.00 95 1020.2
20260831084540 63 330 0.0 1.0 0.00 0.01 0.00 95 1020.1
20260831083055 63 6 0.0 1.0 0.00 0.01 0.00 94 1020.2
20260831081550 63 45 0.0 1.0 0.00 0.01 0.00 94 1020.2
20260831080107 64 13 0.0 2.0 0.00 0.01 0.00 93 1020.3
20260831074537 64 3 0.0 2.0 0.00 0.01 0.00 93 1020.2
20260831073035 64 335 0.0 2.0 0.00 0.01 0.00 93 1019.9
20260831071543 64 340 0.0 4.0 0.00 0.01 0.00 94 1020.1
20260831070034 64 41 0.0 3.0 0.00 0.01 0.00 94 1020.3
20260831064531 64 356 0.0 2.0 0.00 0.01 0.00 94 1020.3
20260831063029 64 15 0.0 1.0 0.00 0.01 0.00 94 1020.5
20260831061528 65 348 0.0 4.0 0.00 0.01 0.00 93 1020.4
20260831060025 65 348 0.0 1.0 0.00 0.01 0.00 92 1020.3
20260831054525 65 350 0.0 2.0 0.00 0.01 0.00 91 1020.2
20260831053036 65 2 0.0 2.0 0.00 0.01 0.00 91 1020.4
20260831051527 65 285 1.0 3.0 0.00 0.01 0.00 91 1020.4
20260831050020 65 30 0.0 3.0 0.00 0.01 0.00 92 1020.3